Terminal Aerodrome Forecast
Issued by NWS

Home | Current Version | Previous Version | Text Only | Print | Product List | Glossary On
Versions: 1 2 3 4 5 6 7 8 9 10 11 12 13 14 15 16 17
000
FTUS41 KGYX 191120
TAFPSM
TAF
KPSM 191120Z 1912/2012 36008KT P6SM FEW060
     FM191700 12008KT P6SM SKC
     FM200000 17004KT P6SM SKC=

USA.gov is the U.S. government's official web portal to all federal, state and local government web resources and services.